Tracking 35274 objects as of 10-Sep-2026
HD Live streaming from Space Station
objects crossing your sky now

COSMOS 1819 DEB


COSMOS 1819 DEB is no longer on orbit


NORAD ID: 17532
Int'l Code: 1987-014H
Launch date: February 7, 1987
Source: Commonwealth of Independent States (former USSR) (CIS)
Launch site: PLESETSK MISSILE AND SPACE COMPLEX (PKMTR)
Decay date: 1987-02-26

Note: This is SATELLITE DEBRIS
Your satellite tracking list
Your tracking list is empty




NASA's NSSDC Master Catalog

Two Line Element Set (TLE):
1 17532U 87014  H 87056.58752166  .07343778 +80000-5 +88222-3 0  9991
2 17532 072.8293 252.6142 0013896 002.7297 357.6247 16.35956062002927
Source of the keplerian elements: AFSPC